AB5PM Weather Reports


Display with metric or nautical units.
time (UTC)temp
F
wind
direction
speed
MPH
gust
MPH
rain 1hr
in
rain 24hr
in
rain mn
in
humidity
%
barometer
mb
20260505194512 87 196 5.0 13.0 0.00 0.00 0.00 56 1005.2
20260505191512 86 240 4.0 12.0 0.00 0.00 0.00 58 1005.1
20260505190011 86 202 3.0 9.0 0.00 0.00 0.00 60 1005.3
20260505184517 85 209 5.0 15.0 0.00 0.00 0.00 59 1005.4
20260505183012 85 197 5.0 14.0 0.00 0.00 0.00 62 1005.2
20260505180016 84 188 4.0 14.0 0.00 0.00 0.00 66 1005.3
20260505174516 83 194 5.0 12.0 0.00 0.00 0.00 66 1005.4
20260505173034 82 190 4.0 15.0 0.00 0.00 0.00 69 1005.5
20260505164529 79 236 6.0 14.0 0.00 0.00 0.00 73 1005.5
20260505163017 78 128 5.0 16.0 0.00 0.00 0.00 74 1005.5
20260505161516 78 218 5.0 18.0 0.00 0.00 0.00 74 1005.4
20260505151505 75 188 6.0 20.0 0.00 0.00 0.00 78 1005.1
20260505124507 72 209 6.0 13.0 0.00 0.00 0.00 83 1004.8
20260505123014 71 182 5.0 18.0 0.00 0.00 0.00 83 1004.4
20260505121514 71 161 5.0 16.0 0.00 0.00 0.00 83 1004.4
20260505114510 72 171 5.0 18.0 0.00 0.00 0.00 82 1004.3
20260505113013 71 227 5.0 13.0 0.00 0.00 0.00 83 1004.3
20260505111516 71 165 7.0 18.0 0.00 0.00 0.00 83 1003.9
20260505101516 71 202 8.0 18.0 0.00 0.00 0.00 83 1004.1
20260505100016 71 199 5.0 19.0 0.00 0.00 0.00 83 1004.2
20260505094521 71 131 6.0 17.0 0.00 0.00 0.00 83 1004.2
20260505093009 71 209 5.0 17.0 0.00 0.00 0.00 83 1004.3
20260505091509 71 204 5.0 14.0 0.00 0.00 0.00 83 1004.6
20260505090014 71 242 5.0 16.0 0.00 0.00 0.00 83 1004.6
20260505084522 71 211 3.0 13.0 0.00 0.00 0.00 82 1004.6
20260505083031 71 197 4.0 13.0 0.00 0.00 0.00 82 1004.6
20260505081507 71 169 4.0 16.0 0.00 0.00 0.00 81 1004.7
20260505080014 72 171 5.0 18.0 0.00 0.00 0.00 80 1004.8
20260505074520 72 198 5.0 13.0 0.00 0.00 0.00 80 1004.9
20260505073022 72 162 5.0 14.0 0.00 0.00 0.00 79 1005.3
20260505071525 72 173 5.0 15.0 0.00 0.00 0.00 78 1005.4
20260505070011 72 179 4.0 16.0 0.00 0.00 0.00 78 1005.7
20260505064516 72 202 5.0 13.0 0.00 0.00 0.00 77 1005.9
20260505063031 72 200 3.0 14.0 0.00 0.00 0.00 77 1005.9
20260505061530 72 198 5.0 14.0 0.00 0.00 0.00 76 1006.1
20260505060020 72 138 3.0 15.0 0.00 0.00 0.00 76 1005.9
20260505054518 73 173 3.0 13.0 0.00 0.00 0.00 75 1006.1
20260505053018 73 158 6.0 14.0 0.00 0.00 0.00 74 1006.4
20260505051526 73 193 4.0 14.0 0.00 0.00 0.00 74 1006.7
20260505041518 74 188 7.0 22.0 0.00 0.00 0.00 71 1006.7
20260505040025 74 215 4.0 17.0 0.00 0.00 0.00 71 1006.7
20260505034526 74 219 4.0 22.0 0.00 0.00 0.00 70 1006.6
20260505033026 74 189 7.0 18.0 0.00 0.00 0.00 70 1006.8
20260505031518 74 198 5.0 16.0 0.00 0.00 0.00 70 1006.7
20260505030020 75 211 4.0 18.0 0.00 0.00 0.00 70 1006.8
20260505024548 75 156 5.0 17.0 0.00 0.00 0.00 69 1006.7
20260505021529 75 113 4.0 14.0 0.00 0.00 0.00 68 1006.7
20260505020018 76 208 5.0 14.0 0.00 0.00 0.00 67 1006.4
20260505014526 76 166 3.0 14.0 0.00 0.00 0.00 66 1006.5
20260505013025 76 191 5.0 19.0 0.00 0.00 0.00 65 1006.6
20260505011535 77 188 5.0 18.0 0.00 0.00 0.00 65 1006.5
20260505010018 77 143 6.0 13.0 0.00 0.00 0.00 64 1006.3
20260505004534 77 200 4.0 20.0 0.00 0.00 0.00 63 1006.4
20260505003007 78 165 8.0 16.0 0.00 0.00 0.00 62 1006.5
20260505001512 79 108 8.0 17.0 0.00 0.00 0.00 60 1006.7
20260505000015 79 165 8.0 19.0 0.00 0.00 0.00 60 1006.7
20260504234519 79 198 5.0 18.0 0.00 0.00 0.00 59 1006.9
20260504233004 80 215 5.0 19.0 0.00 0.00 0.00 59 1006.8
20260504231506 81 207 5.0 17.0 0.00 0.00 0.00 58 1007.0
20260504230012 82 217 4.0 16.0 0.00 0.00 0.00 55 1006.8
20260504224517 82 191 5.0 23.0 0.00 0.00 0.00 55 1007.3
20260504223023 83 118 6.0 17.0 0.00 0.00 0.00 54 1007.1
20260504221505 83 191 8.0 19.0 0.00 0.00 0.00 53 1007.1
20260504220015 83 174 7.0 24.0 0.00 0.00 0.00 53 1007.3
20260504214517 83 205 8.0 23.0 0.00 0.00 0.00 54 1007.5
20260504213022 83 198 6.0 17.0 0.00 0.00 0.00 53 1007.8
20260504211524 83 118 7.0 19.0 0.00 0.00 0.00 53 1008.3
20260504210013 84 171 6.0 14.0 0.00 0.00 0.00 52 1008.6
20260504204517 83 190 3.0 16.0 0.00 0.00 0.00 52 1008.7
20260504203019 83 152 6.0 21.0 0.00 0.00 0.00 51 1009.1
20260504201523 83 196 7.0 19.0 0.00 0.00 0.00 51 1009.5
20260504200026 83 221 5.0 17.0 0.00 0.00 0.00 51 1009.6